Weather History for KGOO - January, 2013

Change the Weather History Date:

Friday, January 11, 2013

  Actual Average (KBLU) Record (KBLU)
Temperature  
Mean Temperature 32 °F -  
Max Temperature 39 °F 44 °F 63 °F (1983)
Min Temperature 26 °F 32 °F 6 °F (1949)
Degree Days  
Heating Degree Days 32    
Moisture  
Dew Point 23 °F    
Average Humidity 75    
Maximum Humidity 93    
Minimum Humidity 45    
Precipitation  
Precipitation 0.00 in - - ()
Sea Level Pressure  
Sea Level Pressure 30.08 in    
Wind  
Wind Speed 2 mph (North)    
Max Wind Speed 9 mph    
Max Gust Speed 18 mph    
Visibility 10 miles    
Events      
Averages and records for this station are not official NWS values.
T = Trace of Precipitation, MM = Missing Value Source: NWS Daily Summary

Daily Weather History Graph

Daily Weather History Graph

Search for Another Location

Airport or City:

Trip Planner

Search our weather history database for the weather conditions in past years. The results will help you decide how hot, cold, wet, or windy it might be!

Date:

Astronomy

Jan. 11, 2013 Rise Set
Actual Time 7:23 AM PST 5:01 PM PST
Civil Twilight 6:53 AM PST 5:31 PM PST
Nautical Twilight 6:20 AM PST 6:04 PM PST
Astronomical Twilight 5:48 AM PST 6:36 PM PST
Moon 7:00 AM PST (1/11) 5:25 PM PST (1/11)
Length of Visible Light 10h 37m
Length of Day
9h 38m
New Moon, 0% of the Moon is Illuminated
Jan 11
New Moon
Jan 18
First Quarter
Jan 26
Full
Feb 3
Last Quarter
Feb 9
New

Hourly Weather History & Observations

Time (PST) Temp. Windchill Dew Point Humidity Pressure Visibility Wind Dir Wind Speed Gust Speed Precip Events Conditions
12:00 AM 28.4 °F - 24.8 °F 86% 30.05 in 10.0 mi Calm Calm - N/A   Clear
12:15 AM 28.4 °F - 24.8 °F 86% 30.06 in 10.0 mi Calm Calm - N/A   Clear
12:40 AM 28.4 °F - 24.8 °F 86% 30.06 in 10.0 mi Calm Calm - N/A   Clear
1:00 AM 26.6 °F - 24.8 °F 93% 30.06 in 10.0 mi Calm Calm - N/A   Clear
1:20 AM 28.4 °F - 24.8 °F 86% 30.06 in 10.0 mi Calm Calm - N/A   Mostly Cloudy
1:40 AM 28.4 °F - 26.6 °F 93% 30.06 in 10.0 mi Calm Calm - N/A   Mostly Cloudy
2:00 AM 28.4 °F - 24.8 °F 86% 30.06 in 10.0 mi Calm Calm - N/A   Partly Cloudy
2:20 AM 26.6 °F - 24.8 °F 93% 30.06 in 10.0 mi Calm Calm - N/A   Clear
2:40 AM 26.6 °F - 24.8 °F 93% 30.07 in 10.0 mi Calm Calm - N/A   Clear
3:00 AM 26.6 °F - 24.8 °F 93% 30.07 in 10.0 mi Calm Calm - N/A   Clear
3:20 AM 26.6 °F - 24.8 °F 93% 30.06 in 10.0 mi Calm Calm - N/A   Clear
3:40 AM 26.6 °F - 24.8 °F 93% 30.06 in 10.0 mi Calm Calm - N/A   Clear
4:00 AM 26.6 °F - 24.8 °F 93% 30.06 in 10.0 mi Calm Calm - N/A   Clear
4:40 AM 26.6 °F - 24.8 °F 93% 30.06 in 10.0 mi Calm Calm - N/A   Clear
4:55 AM 26.6 °F - 24.8 °F 93% 30.07 in 10.0 mi Calm Calm - N/A   Clear
5:20 AM 26.6 °F - 24.8 °F 93% 30.08 in 10.0 mi Calm Calm - N/A   Clear
5:40 AM 26.6 °F 22.6 °F 23.0 °F 86% 30.08 in 10.0 mi East 3.5 mph - N/A   Clear
6:00 AM 26.6 °F - 24.8 °F 93% 30.09 in 10.0 mi Calm Calm - N/A   Clear
6:20 AM 26.6 °F - 24.8 °F 93% 30.09 in 10.0 mi Calm Calm - N/A   Partly Cloudy
6:40 AM 26.6 °F 22.6 °F 23.0 °F 86% 30.10 in 10.0 mi ESE 3.5 mph - N/A   Clear
7:00 AM 26.6 °F 21.2 °F 24.8 °F 93% 30.10 in 10.0 mi ESE 4.6 mph - N/A   Clear
7:20 AM 26.6 °F 20.0 °F 24.8 °F 93% 30.11 in 10.0 mi ESE 5.8 mph - N/A   Clear
7:40 AM 28.4 °F 22.2 °F 24.8 °F 86% 30.11 in 10.0 mi ESE 5.8 mph - N/A   Partly Cloudy
8:00 AM 28.4 °F - 24.8 °F 86% 30.12 in 10.0 mi Calm Calm - N/A   Partly Cloudy
8:20 AM 28.4 °F - 24.8 °F 86% 30.12 in 10.0 mi Calm Calm - N/A   Clear
8:40 AM 28.4 °F - 24.8 °F 86% 30.12 in 10.0 mi Calm Calm - N/A   Clear
9:00 AM 32.0 °F 26.4 °F 24.8 °F 75% 30.12 in 10.0 mi SSE 5.8 mph - N/A   Scattered Clouds
9:20 AM 30.2 °F - 26.6 °F 86% 30.12 in 10.0 mi Calm Calm - N/A   Mostly Cloudy
9:40 AM 32.0 °F - 24.8 °F 75% 30.13 in 10.0 mi Calm Calm - N/A   Mostly Cloudy
10:00 AM 32.0 °F - 26.6 °F 80% 30.13 in 10.0 mi Calm Calm - N/A   Mostly Cloudy
10:20 AM 32.0 °F 27.5 °F 24.8 °F 75% 30.13 in 10.0 mi SSE 4.6 mph - N/A   Mostly Cloudy
10:40 AM 32.0 °F - 24.8 °F 75% 30.13 in 10.0 mi Calm Calm - N/A   Mostly Cloudy
11:00 AM 32.0 °F - 26.6 °F 80% 30.12 in 10.0 mi Calm Calm - N/A   Scattered Clouds
11:20 AM 32.0 °F 28.7 °F 26.6 °F 80% 30.11 in 10.0 mi ESE 3.5 mph - N/A   Mostly Cloudy
11:40 AM 35.6 °F - 26.6 °F 70% 30.11 in 10.0 mi Calm Calm - N/A   Mostly Cloudy
12:00 PM 33.8 °F - 23.0 °F 65% 30.10 in 10.0 mi Calm Calm - N/A   Partly Cloudy
12:20 PM 35.6 °F - 24.8 °F 65% 30.09 in 10.0 mi Calm Calm - N/A   Partly Cloudy
12:40 PM 35.6 °F - 23.0 °F 60% 30.07 in 10.0 mi Calm Calm - N/A   Partly Cloudy
1:00 PM 35.6 °F 30.7 °F 21.2 °F 56% 30.07 in 10.0 mi West 5.8 mph - N/A   Scattered Clouds
1:20 PM 37.4 °F 34.9 °F 21.2 °F 52% 30.07 in 10.0 mi West 3.5 mph - N/A   Mostly Cloudy
1:40 PM 35.6 °F 32.8 °F 21.2 °F 56% 30.07 in 10.0 mi WSW 3.5 mph - N/A   Overcast
2:00 PM 37.4 °F 34.9 °F 21.2 °F 52% 30.06 in 10.0 mi WNW 3.5 mph - N/A   Mostly Cloudy
2:20 PM 37.4 °F 32.1 °F 21.2 °F 52% 30.06 in 10.0 mi WNW 6.9 mph - N/A   Mostly Cloudy
2:40 PM 39.2 °F 34.2 °F 19.4 °F 45% 30.06 in 10.0 mi NW 6.9 mph - N/A   Mostly Cloudy
3:00 PM 37.4 °F 32.1 °F 23.0 °F 56% 30.06 in 10.0 mi WNW 6.9 mph - N/A   Mostly Cloudy
3:20 PM 37.4 °F 32.1 °F 23.0 °F 56% 30.06 in 10.0 mi West 6.9 mph - N/A   Mostly Cloudy
3:40 PM 35.6 °F 30.7 °F 23.0 °F 60% 30.06 in 10.0 mi WNW 5.8 mph - N/A   Scattered Clouds
4:00 PM 35.6 °F 32.8 °F 19.4 °F 52% 30.06 in 10.0 mi NW 3.5 mph - N/A   Mostly Cloudy
4:20 PM 35.6 °F 31.7 °F 23.0 °F 60% 30.06 in 10.0 mi NNW 4.6 mph - N/A   Mostly Cloudy
4:40 PM 35.6 °F 30.7 °F 24.8 °F 65% 30.06 in 10.0 mi West 5.8 mph - N/A   Partly Cloudy
5:00 PM 33.8 °F - 24.8 °F 70% 30.06 in 10.0 mi Calm Calm - N/A   Clear
5:20 PM 32.0 °F 28.7 °F 24.8 °F 75% 30.06 in 10.0 mi NW 3.5 mph - N/A   Clear
5:40 PM 32.0 °F - 24.8 °F 75% 30.06 in 10.0 mi Calm Calm - N/A   Clear
5:55 PM 32.0 °F 28.7 °F 24.8 °F 75% 30.06 in 10.0 mi NNW 3.5 mph - N/A   Clear
6:20 PM 32.0 °F 28.7 °F 24.8 °F 75% 30.06 in 10.0 mi North 3.5 mph - N/A   Clear
6:40 PM 32.0 °F 28.7 °F 26.6 °F 80% 30.07 in 10.0 mi NNW 3.5 mph - N/A   Clear
7:00 PM 32.0 °F 28.7 °F 26.6 °F 80% 30.07 in 10.0 mi NNE 3.5 mph - N/A   Clear
7:20 PM 30.2 °F 25.4 °F 24.8 °F 80% 30.07 in 10.0 mi North 4.6 mph - N/A   Scattered Clouds
7:40 PM 32.0 °F 28.7 °F 26.6 °F 80% 30.07 in 4.0 mi NNE 3.5 mph - N/A   Mostly Cloudy
8:00 PM 30.2 °F - 26.6 °F 86% 30.07 in 10.0 mi Calm Calm - N/A   Partly Cloudy
8:20 PM 30.2 °F - 24.8 °F 80% 30.07 in 10.0 mi Calm Calm - N/A   Clear
8:40 PM 30.2 °F 24.3 °F 23.0 °F 75% 30.07 in 10.0 mi ENE 5.8 mph - N/A   Clear
9:00 PM 32.0 °F 27.5 °F 19.4 °F 60% 30.07 in 10.0 mi NE 4.6 mph - N/A   Clear
9:20 PM 32.0 °F 24.8 °F 15.8 °F 51% 30.07 in 10.0 mi NE 8.1 mph - N/A   Clear
9:40 PM 30.2 °F 26.7 °F 17.6 °F 60% 30.07 in 10.0 mi NNE 3.5 mph - N/A   Clear
10:00 PM 28.4 °F 24.6 °F 17.6 °F 64% 30.08 in 10.0 mi North 3.5 mph - N/A   Clear
10:20 PM 28.4 °F 23.3 °F 15.8 °F 59% 30.08 in 10.0 mi ENE 4.6 mph - N/A   Clear
10:40 PM 28.4 °F 23.3 °F 15.8 °F 59% 30.08 in 10.0 mi NE 4.6 mph - N/A   Clear
11:00 PM 28.4 °F 24.6 °F 14.0 °F 55% 30.08 in 10.0 mi NE 3.5 mph - N/A   Clear
11:20 PM 28.4 °F 19.7 °F 12.2 °F 51% 30.08 in 10.0 mi ENE 9.2 mph 18.4 mph N/A   Clear
11:40 PM 28.4 °F 21.2 °F 10.4 °F 47% 30.08 in 10.0 mi ENE 6.9 mph - N/A   Clear